177  
NZUS93 KARX 240710  
HRRWXR  
 
CURRENT HOURLY OBSERVATIONS ACROSS  
MUCH OF THE UPPER MISSISSIPPI VALLEY  
NATIONAL WEATHER SERVICE LA CROSSE WI  
200 AM CDT SUN MAR 24 2019  
 
   
..SOUTHEAST MINNESOTA
 
 
 
CITY SKY/WX TMP DP RH WIND PRES REMARKS  
ROCHESTER CLOUDY 39 33 79 S10 30.11F WCI 32  
ROCHESTER/MAYO CLOUDY 42 33 69 SE5 30.11F  
WINONA CLOUDY 36 32 87 CALM 30.13F  
AUSTIN DRIZZLE 41 32 70 E3 30.10F  
ALBERT LEA CLOUDY 43 37 81 SE3 30.09F  
DODGE CENTER CLOUDY 37 34 87 CALM 30.10F  
PRESTON DRIZZLE 40 34 77 S7 30.12S  
OWATONNA MOCLDY 39 36 87 CALM 30.10F  
FARIBAULT NOT AVBL  

 
   
..ELSEWHERE IN MINNESOTA
 
 
 
CITY SKY/WX TMP DP RH WIND PRES REMARKS  
MINNEAPOLIS CLOUDY 40 33 76 E5 30.11F  
INTNL FALLS FAIR 33 28 81 N13G20 30.11R WCI 24  
DULUTH FAIR 38 29 70 NW13 30.05R WCI 30  
RED WING FAIR 32 28 86 CALM 30.11F  
REDWOOD FALLS LGT RAIN 40 38 93 SE6 30.09F  
MANKATO LGT RAIN 41 38 89 E5 30.10F  
WORTHINGTON CLOUDY 39 37 92 NE7 30.06F WCI 34  
FAIRMONT CLOUDY 41 37 86 NE6 30.08F  

 
   
..SOUTHWEST WISCONSIN
 
 
 
CITY SKY/WX TMP DP RH WIND PRES REMARKS  
LA CROSSE CLOUDY 39 32 76 CALM 30.12F  
PRAIRIE DU CHI CLOUDY 43 32 65 CALM 30.12F  
BOSCOBEL FAIR 38 32 79 CALM 30.14F  
LONE ROCK FAIR 39 34 82 CALM 30.14F  
PLATTEVILLE CLOUDY 42 33 70 SE6 30.14F  
FORT MC COY MOCLDY 31 28 86 CALM 30.13F  
MAUSTON-NEW LI FAIR 34 31 88 CALM 30.12F  
VIROQUA CLOUDY 42 32 69 SE5 30.12F  
WIS DELLS MOCLDY 39 29 68 CALM 30.13F  

 
   
..ELSEWHERE IN WISCONSIN
 
 
 
CITY SKY/WX TMP DP RH WIND PRES REMARKS  
MILWAUKEE CLOUDY 39 27 62 S5 30.16F  
MADISON FAIR 41 30 65 MISG 30.15S  
GREEN BAY FAIR 40 30 67 SW7 30.12R  
EAU CLAIRE FAIR 30 25 81 CALM 30.11S  
BLACK RVR FLS FAIR 27 27 100 CALM 30.13S  
MEDFORD FAIR 35 23 63 SW5 30.10S WCI 31  
WAUSAU FAIR 28 24 85 CALM 30.09S  
WIS RAPIDS FAIR 34 25 69 SW3 30.13S  
MARSHFIELD FAIR 36 27 69 SW5 30.10S WCI 32  
RICE LAKE FAIR 29 27 93 CALM 30.12S  

 
   
..NORTHEAST IOWA
 
 
 
CITY SKY/WX TMP DP RH WIND PRES REMARKS  
WATERLOO LGT RAIN 42 37 82 E5 30.09F  
DUBUQUE CLOUDY 43 32 65 S12 30.12F  
DECORAH CLOUDY 41 36 81 CALM 30.10F  
MASON CITY CLOUDY 40 36 86 E5 30.09F  
CHARLES CITY NOT AVBL  
OELWEIN MOCLDY 41 39 93 SE7 30.11S  

 
   
..ELSEWHERE IN IOWA
 
 
 
CITY SKY/WX TMP DP RH WIND PRES REMARKS  
DES MOINES CLOUDY 46 38 73 SE7 30.03F  
IOWA CITY CLOUDY 45 36 70 E5 30.12F  
FORT DODGE LGT RAIN 41 38 89 E9 30.04F  
MARSHALLTOWN LGT RAIN 44 39 82 SE10 30.06S  
CEDAR RAPIDS CLOUDY 43 37 79 SE8 30.09F  

 
   
..NORTHERN ILLINOIS
 
 
 
CITY SKY/WX TMP DP RH WIND PRES REMARKS  
CHICAGO-OHARE CLOUDY 43 26 51 S6 30.17F  
CHICAGO-MIDWAY MOCLDY 44 24 45 S6 30.18F  
MOLINE CLOUDY 45 38 76 E3 30.13F  
ROCKFORD CLOUDY 41 31 67 S5 30.17F  
PEORIA LGT RAIN 46 40 79 S7 30.17F  

 
 
NOTE: "FAIR" INDICATES FEW OR NO CLOUDS BELOW 12,000 FEET WITH NO  
SIGNIFICANT WEATHER AND/OR OBSTRUCTIONS TO VISIBILITY. WIND  
SPEEDS ARE IN MILES-PER-HOUR.  
 
 
CLICK HERE TO GO TO PREVIOUS BULLETINS.

The Nexlab WI Page
The Nexlab IA Page
The Nexlab MN Page Main Text Page